Airfield :
LOGIN :

Register | Disclaimer

   EN    FR    IT 

 










Legend :    VFR   Marginal VFR   IFR   Intensive IFR   Very Intensive IFR
Visi :
Ceiling :
>= 8 km
>= 3000ft
5 to 8 km
1000 to 3000 ft
1500m to 5 km
500 to 1000 ft
800 to 1500m
200 to 500 ft
< 800m
< 200 ft
Symbols :   Thunderstorms  Fog  Heavy snow  Heavy precipitations  Wind > 20 kt
SIGMETs :     Misc.  Thunderstorms  Icing  Turbulence  Mountain Waves  Volcanic Ashes







- Airport Elevation : 286 ft
- IATA code : FFD


EGVA - RAF Fairford

CURRENT METAR :
  • 210916Z AUTO 00000KT 9999 FEW016 SCT023 19/14 A2995 RMK AO2 VIS 0200 RWY09 SLP144

EXPIRED METARs :
  • 210901Z AUTO 00000KT 9999 SCT016 BKN021 19/15 A2995 RMK AO2 VIS 0200 RWY09 CIG 013V021 BKN V OVC SLP144
  • 210816Z AUTO 00000KT 9999 OVC010 18/15 A2995 RMK AO2 VIS 0200 RWY09 CIG 008V010 SLP144
  • 210801Z AUTO 00000KT 9999 OVC008 17/15 A2995 RMK AO2 VIS 0200 RWY09 SLP144
  • 210656Z AUTO 12003KT 9999 OVC007 16/14 A2994 RMK AO2 VIS 0200 RWY09 SLP140 T01610143

Expired Forecast.
No reported NOTAMs for that airfield.



MET'MAP, your aeronautical weather chart ! - Copyright ORBIFLY December 2007 - Disclaimer

ORBIFLY MET'MAP TEAM :

Programming & Development : Alexandra Zaïnal
Concept & Development : Baudouin d'Aumeries
Co-Development & Prog : Marc-Olivier Méhu
Technical & hardware support : Manuel Goepfert

Contact : metmap@orbifly.com




SOURCES & CREDITS :

   NOAA